Retour au catalogue

SL-16 R/B

ActifSSO
NORAD 25861·ROCKET BODY·🇷🇺 Russia

Lancé Jul 17, 1999 depuis Baikonur Cosmodrome

Loading…

Prochains Passages (prochaines 24 heures)

TLE

FraisSource: Space-Track

Époque: Sep 14, 2026, 02:15 UTC

1 25861U 99039B   26257.09411516  .00000327  00000-0  48070-4 0  9996
2 25861  97.9746 315.6629 0014930  11.2744 348.8800 14.81918804464766

Suivez SL-16 R/B en temps réel avec AllMySat

Download on the App Store